Location: Calvatone
(45.1167°N, 10.4333°E)
Time: 11:51:07
(UTC+00:00)

PCSat - Pass Details

Date: 09 December 2023
Orbit: 784 x 791 km, 67.0° (Epoch: 27 February)

Event Time Altitude Azimuth Distance (km) Brightness Sun altitude
Exits shadow 05:25:16 11° 329° (NNW) 2,300 11.5 -13.4°
Maximum altitude 05:25:46 11° 334° (NNW) 2,293 11.6 -13.3°
Drops below altitude 10° 05:27:11 10° 350° (N) 2,360 11.7 -13.1°
Sets 05:31:50 0° 26° (NNE) 3,295 12.9 -12.3°
